Location: B?lite?ti
(46.2833°N, 22.7333°E)
Time: 03:26:48
(UTC+00:00)

Meteor 2-1 Rocket - Pass Details

Date: 24 January 2021
Orbit: 827 x 910 km, 81.3° (Epoch: 26 February)

Event Time Altitude Azimuth Distance (km) Brightness Sun altitude
Rises 16:30:37 0° 349° (N) 3,407 7.3 -11.9°
Reaches altitude 10° 16:33:03 10° 350° (N) 2,460 6.6 -12.3°
Maximum altitude 16:38:38 85° 80° (E) 839 4.1 -13.2°
Drops below altitude 10° 16:44:07 10° 169° (SSE) 2,423 6.6 -14.1°
Sets 16:46:30 0° 170° (S) 3,353 7.4 -14.5°
